Location: Unspecified
(51.3762°N, 0.0000°E)
Time: 11:07:26
(UTC+00:00)

O/OREOS (USA 219) - Pass Details

Date: 26 July 2019
Orbit: 621 x 646 km, 72.0° (Epoch: 22 May)

Event Time Altitude Azimuth Distance (km) Brightness Sun altitude
Exits shadow 01:58:53 - 147° (SSE) 2,527 ? -15.0°
Reaches altitude 10° 02:00:49 10° 131° (SE) 2,030 ? -14.8°
Maximum altitude 02:03:12 14° 99° (E) 1,764 ? -14.6°
Drops below altitude 10° 02:05:35 10° 67° (ENE) 2,031 ? -14.5°
Sets 02:08:48 0° 43° (NE) 2,940 ? -14.2°
